• In Moldova, Republic
  • List of Countries
  • For 7 days
  • Water Temperature
  • Satellite Maps
  • Weather Map
  • Weather Widgets
  • user-avatar
    Login

    Hourly Weather Djelfa

    Today, 23 May, Tuesday

    Time Temperature Precipitation Wind Pressure Humidity
    00:00 +24°C° 0.1 mm 3 mps 667 mmHg 44%
    01:00 +22°C° 0.1 mm 3 mps 667 mmHg 44%
    02:00 +22°C° 0.1 mm 3 mps 666 mmHg 44%
    03:00 +21°C° 0.1 mm 4 mps 666 mmHg 44%
    04:00 +21°C° 0.1 mm 4 mps 666 mmHg 42%
    05:00 +21°C° 0.1 mm 4 mps 666 mmHg 39%
    06:00 +21°C° 0.1 mm 4 mps 667 mmHg 37%
    07:00 +23°C° 0 mm 5 mps 667 mmHg 35%
    08:00 +25°C° 0 mm 5 mps 668 mmHg 34%
    09:00 +26°C° 0 mm 5 mps 668 mmHg 32%
    10:00 +27°C° 0.1 mm 6 mps 668 mmHg 32%
    11:00 +27°C° 0.1 mm 6 mps 668 mmHg 33%
    12:00 +28°C° 0.1 mm 6 mps 668 mmHg 33%
    13:00 +27°C° 0.2 mm 6 mps 668 mmHg 34%
    14:00 +26°C° 0.2 mm 6 mps 668 mmHg 35%
    15:00 +26°C° 0.2 mm 6 mps 667 mmHg 37%
    16:00 +24°C° 0.1 mm 6 mps 667 mmHg 37%
    17:00 +25°C° 0.1 mm 5 mps 667 mmHg 38%
    18:00 +25°C° 0.1 mm 5 mps 667 mmHg 38%
    19:00 +23°C° 0.3 mm 4 mps 667 mmHg 40%
    20:00 +22°C° 0.3 mm 3 mps 667 mmHg 43%
    21:00 +21°C° 0.3 mm 2 mps 667 mmHg 45%
    22:00 +22°C° 0 mm 1 mps 667 mmHg 46%
    23:00 +22°C° 0 mm 1 mps 667 mmHg 47%

    Tomorrow, 24 May, Wednesday

    Time Temperature Precipitation Wind Pressure Humidity
    00:00 +21°C° 0 mm 1 mps 666 mmHg 48%
    01:00 +21°C° 0 mm 1 mps 666 mmHg 49%
    02:00 +20°C° 0 mm 1 mps 666 mmHg 50%
    03:00 +20°C° 0 mm 1 mps 666 mmHg 51%
    04:00 +19°C° 0 mm 0 mps 666 mmHg 49%
    05:00 +19°C° 0 mm 0 mps 666 mmHg 48%
    06:00 +20°C° 0 mm 0 mps 666 mmHg 47%
    07:00 +23°C° 0 mm 1 mps 667 mmHg 42%
    08:00 +25°C° 0 mm 1 mps 667 mmHg 37%
    09:00 +26°C° 0 mm 1 mps 668 mmHg 32%
    10:00 +27°C° 0 mm 1 mps 668 mmHg 29%
    11:00 +28°C° 0 mm 1 mps 668 mmHg 27%
    12:00 +29°C° 0 mm 2 mps 668 mmHg 24%
    13:00 +30°C° 0 mm 2 mps 667 mmHg 23%
    14:00 +30°C° 0 mm 1 mps 667 mmHg 22%
    15:00 +30°C° 0 mm 1 mps 667 mmHg 21%
    16:00 +30°C° 0 mm 1 mps 667 mmHg 22%
    17:00 +30°C° 0 mm 1 mps 666 mmHg 24%
    18:00 +29°C° 0 mm 1 mps 666 mmHg 25%
    19:00 +28°C° 0.2 mm 1 mps 667 mmHg 28%
    20:00 +27°C° 0.2 mm 2 mps 667 mmHg 31%
    21:00 +26°C° 0.2 mm 2 mps 667 mmHg 35%
    22:00 +25°C° 0.3 mm 2 mps 667 mmHg 37%
    23:00 +25°C° 0.3 mm 2 mps 667 mmHg 39%

    Day after tomorrow, 25 May, Thursday

    Time Temperature Precipitation Wind Pressure Humidity
    00:00 +24°C° 0.3 mm 2 mps 667 mmHg 41%
    01:00 +23°C° 0 mm 2 mps 666 mmHg 43%
    02:00 +23°C° 0 mm 2 mps 666 mmHg 45%
    03:00 +22°C° 0 mm 1 mps 666 mmHg 47%
    04:00 +23°C° 0 mm 2 mps 666 mmHg 45%
    05:00 +23°C° 0 mm 2 mps 666 mmHg 44%
    06:00 +23°C° 0 mm 2 mps 667 mmHg 43%
    07:00 +25°C° 0 mm 3 mps 667 mmHg 39%
    08:00 +27°C° 0 mm 4 mps 667 mmHg 34%
    09:00 +28°C° 0 mm 4 mps 668 mmHg 30%
    10:00 +29°C° 0 mm 4 mps 668 mmHg 28%
    11:00 +30°C° 0 mm 4 mps 668 mmHg 25%
    12:00 +32°C° 0 mm 4 mps 668 mmHg 23%
    13:00 +32°C° 0 mm 4 mps 667 mmHg 22%
    14:00 +32°C° 0 mm 4 mps 667 mmHg 22%
    15:00 +32°C° 0 mm 4 mps 667 mmHg 22%
    16:00 +30°C° 0.1 mm 4 mps 666 mmHg 25%
    17:00 +29°C° 0.1 mm 3 mps 666 mmHg 28%
    18:00 +28°C° 0.1 mm 3 mps 666 mmHg 31%
    19:00 +27°C° 0 mm 3 mps 666 mmHg 34%
    20:00 +26°C° 0 mm 2 mps 667 mmHg 37%
    21:00 +26°C° 0 mm 2 mps 667 mmHg 40%
    22:00 +25°C° 0.1 mm 2 mps 667 mmHg 41%
    23:00 +24°C° 0.1 mm 2 mps 667 mmHg 43%

    26 May, Friday

    Time Temperature Precipitation Wind Pressure Humidity
    00:00 +24°C° 0.1 mm 1 mps 666 mmHg 44%
    01:00 +23°C° 0.2 mm 1 mps 666 mmHg 46%
    02:00 +23°C° 0.2 mm 1 mps 665 mmHg 48%
    03:00 +22°C° 0.2 mm 1 mps 665 mmHg 51%
    04:00 +23°C° 0.2 mm 2 mps 665 mmHg 48%
    05:00 +23°C° 0.2 mm 2 mps 665 mmHg 45%
    06:00 +24°C° 0.2 mm 3 mps 666 mmHg 42%
    07:00 +26°C° 0 mm 4 mps 666 mmHg 38%
    08:00 +27°C° 0 mm 4 mps 666 mmHg 33%
    09:00 +28°C° 0 mm 5 mps 667 mmHg 28%
    10:00 +30°C° 0 mm 5 mps 667 mmHg 25%
    11:00 +32°C° 0 mm 5 mps 666 mmHg 23%
    12:00 +34°C° 0 mm 5 mps 666 mmHg 20%
    13:00 +34°C° 0 mm 5 mps 666 mmHg 20%
    14:00 +33°C° 0 mm 5 mps 665 mmHg 20%
    15:00 +33°C° 0 mm 5 mps 665 mmHg 20%
    16:00 +33°C° 0 mm 5 mps 665 mmHg 20%
    17:00 +33°C° 0 mm 5 mps 665 mmHg 20%
    18:00 +32°C° 0 mm 4 mps 664 mmHg 21%
    19:00 +30°C° 0 mm 4 mps 664 mmHg 22%
    20:00 +29°C° 0 mm 4 mps 665 mmHg 24%
    21:00 +28°C° 0 mm 4 mps 665 mmHg 26%
    22:00 +27°C° 0.1 mm 4 mps 664 mmHg 29%
    23:00 +26°C° 0.1 mm 4 mps 664 mmHg 32%

    27 May, Saturday

    Time Temperature Precipitation Wind Pressure Humidity
    00:00 +26°C° 0.1 mm 4 mps 664 mmHg 34%
    01:00 +25°C° 0 mm 4 mps 664 mmHg 36%
    02:00 +25°C° 0 mm 3 mps 664 mmHg 37%
    03:00 +24°C° 0 mm 3 mps 663 mmHg 39%
    04:00 +24°C° 0 mm 2 mps 664 mmHg 37%
    05:00 +24°C° 0 mm 2 mps 664 mmHg 36%
    06:00 +25°C° 0 mm 2 mps 664 mmHg 35%
    07:00 +27°C° 0 mm 3 mps 665 mmHg 29%
    08:00 +29°C° 0 mm 5 mps 666 mmHg 24%
    09:00 +32°C° 0 mm 6 mps 666 mmHg 18%
    10:00 +33°C° 0 mm 7 mps 666 mmHg 16%
    11:00 +35°C° 0 mm 7 mps 666 mmHg 14%
    12:00 +37°C° 0 mm 8 mps 666 mmHg 13%
    13:00 +37°C° 0 mm 8 mps 666 mmHg 12%
    14:00 +38°C° 0 mm 7 mps 665 mmHg 12%
    15:00 +38°C° 0 mm 7 mps 665 mmHg 11%
    16:00 +36°C° 0 mm 7 mps 664 mmHg 12%
    17:00 +36°C° 0 mm 6 mps 664 mmHg 13%
    18:00 +35°C° 0 mm 6 mps 664 mmHg 14%
    19:00 +34°C° 0.1 mm 5 mps 664 mmHg 17%
    20:00 +32°C° 0.1 mm 5 mps 665 mmHg 19%
    21:00 +30°C° 0.1 mm 4 mps 665 mmHg 22%
    22:00 +29°C° 0.1 mm 4 mps 665 mmHg 23%
    23:00 +29°C° 0.1 mm 5 mps 664 mmHg 24%

    28 May, Sunday

    Time Temperature Precipitation Wind Pressure Humidity
    00:00 +28°C° 0.1 mm 5 mps 664 mmHg 25%
    01:00 +27°C° 0 mm 4 mps 664 mmHg 27%
    02:00 +26°C° 0 mm 3 mps 664 mmHg 29%
    03:00 +25°C° 0 mm 3 mps 664 mmHg 32%
    04:00 +25°C° 0 mm 2 mps 664 mmHg 32%
    05:00 +25°C° 0 mm 2 mps 664 mmHg 33%
    06:00 +25°C° 0 mm 2 mps 665 mmHg 33%
    07:00 +27°C° 0 mm 3 mps 665 mmHg 28%
    08:00 +29°C° 0 mm 4 mps 666 mmHg 23%
    09:00 +33°C° 0 mm 5 mps 666 mmHg 18%
    10:00 +34°C° 0 mm 5 mps 666 mmHg 15%
    11:00 +35°C° 0 mm 6 mps 666 mmHg 12%
    12:00 +38°C° 0 mm 7 mps 666 mmHg 10%
    13:00 +38°C° 0 mm 7 mps 666 mmHg 10%
    14:00 +38°C° 0 mm 7 mps 666 mmHg 10%
    15:00 +39°C° 0 mm 7 mps 665 mmHg 10%
    16:00 +38°C° 0 mm 6 mps 665 mmHg 11%
    17:00 +36°C° 0 mm 5 mps 665 mmHg 12%
    18:00 +36°C° 0 mm 5 mps 665 mmHg 13%
    19:00 +34°C° 0 mm 4 mps 665 mmHg 14%
    20:00 +33°C° 0 mm 4 mps 665 mmHg 15%
    21:00 +32°C° 0 mm 4 mps 665 mmHg 16%
    22:00 +30°C° 0 mm 4 mps 665 mmHg 17%
    23:00 +29°C° 0 mm 4 mps 664 mmHg 18%
    Show more